When you browse on this site, cookies collect data to enhance your experience and personalize the content and advertising you see.
Visit our Privacy Policy to learn more. By continuing to use the site, you agree to this use of cookies and data.
  • In Hungary
  • List of Countries
  • For 7 days
  • Water Temperature
  • Satellite Maps
  • Weather Map
  • News
  • Weather Widgets
  • user-avatar
    Login

    Hourly Weather Tyrgowishte

    Today, 18 November, Sunday

    Time Temperature Precipitation Wind Pressure Humidity
    00:00 -1°C° 0 mm 3 mps 754 mmHg 83%
    01:00 -1°C° 0 mm 3 mps 754 mmHg 83%
    02:00 -1°C° 0 mm 3 mps 753 mmHg 83%
    03:00 -1°C° 0 mm 2 mps 753 mmHg 84%
    04:00 -1°C° 0 mm 2 mps 753 mmHg 84%
    05:00 -1°C° 0 mm 2 mps 753 mmHg 84%
    06:00 -1°C° 0 mm 2 mps 752 mmHg 84%
    07:00 -1°C° 0 mm 2 mps 752 mmHg 84%
    08:00 -1°C° 0 mm 2 mps 752 mmHg 84%
    09:00 +1°C° 0 mm 2 mps 752 mmHg 82%
    10:00 +2°C° 0 mm 2 mps 751 mmHg 79%
    11:00 +3°C° 0 mm 2 mps 751 mmHg 76%
    12:00 +3°C° 0 mm 3 mps 750 mmHg 74%
    13:00 +4°C° 0 mm 3 mps 750 mmHg 72%
    14:00 +5°C° 0 mm 4 mps 749 mmHg 71%
    15:00 +5°C° 0.2 mm 4 mps 748 mmHg 75%
    16:00 +4°C° 0.2 mm 4 mps 748 mmHg 79%
    17:00 +4°C° 0.2 mm 3 mps 747 mmHg 83%
    18:00 +4°C° 0.8 mm 4 mps 747 mmHg 85%
    19:00 +4°C° 0.8 mm 4 mps 746 mmHg 87%
    20:00 +4°C° 0.8 mm 4 mps 745 mmHg 89%
    21:00 +3°C° 1.4 mm 5 mps 745 mmHg 89%
    22:00 +3°C° 1.4 mm 5 mps 744 mmHg 90%
    23:00 +5°C° 1.4 mm 5 mps 744 mmHg 90%

    Tomorrow, 19 November, Monday

    Time Temperature Precipitation Wind Pressure Humidity
    00:00 +5°C° 1.6 mm 5 mps 743 mmHg 90%
    01:00 +4°C° 1.6 mm 6 mps 743 mmHg 91%
    02:00 +4°C° 1.6 mm 6 mps 742 mmHg 91%
    03:00 +4°C° 2.1 mm 6 mps 741 mmHg 91%
    04:00 +4°C° 2.1 mm 6 mps 741 mmHg 91%
    05:00 +4°C° 2.1 mm 6 mps 740 mmHg 91%
    06:00 +3°C° 0.5 mm 6 mps 740 mmHg 90%
    07:00 +3°C° 0.5 mm 6 mps 740 mmHg 90%
    08:00 +3°C° 0.5 mm 6 mps 740 mmHg 89%
    09:00 +3°C° 0.2 mm 5 mps 740 mmHg 89%
    10:00 +3°C° 0.2 mm 4 mps 741 mmHg 89%
    11:00 +3°C° 0.2 mm 4 mps 741 mmHg 88%
    12:00 +3°C° 0 mm 4 mps 741 mmHg 87%
    13:00 +3°C° 0 mm 4 mps 742 mmHg 86%
    14:00 +3°C° 0 mm 4 mps 742 mmHg 85%
    15:00 +3°C° 0 mm 3 mps 743 mmHg 86%
    16:00 +2°C° 0 mm 3 mps 743 mmHg 87%
    17:00 +2°C° 0 mm 3 mps 744 mmHg 88%
    18:00 +2°C° 0 mm 3 mps 745 mmHg 88%
    19:00 +3°C° 0 mm 2 mps 745 mmHg 88%
    20:00 +2°C° 0 mm 2 mps 746 mmHg 88%
    21:00 +2°C° 0 mm 2 mps 747 mmHg 89%
    22:00 +3°C° 0 mm 1 mps 747 mmHg 90%
    23:00 +3°C° 0 mm 1 mps 747 mmHg 91%

    Day after tomorrow, 20 November, Tuesday

    Time Temperature Precipitation Wind Pressure Humidity
    00:00 +3°C° 0 mm 1 mps 748 mmHg 91%
    01:00 +3°C° 0 mm 1 mps 748 mmHg 92%
    02:00 +2°C° 0 mm 1 mps 748 mmHg 92%
    03:00 +2°C° 0 mm 1 mps 748 mmHg 93%
    04:00 +1°C° 0 mm 2 mps 748 mmHg 93%
    05:00 +1°C° 0 mm 2 mps 748 mmHg 93%
    06:00 +1°C° 0 mm 2 mps 749 mmHg 91%
    07:00 +1°C° 0 mm 2 mps 749 mmHg 89%
    08:00 +1°C° 0 mm 3 mps 749 mmHg 87%
    09:00 +2°C° 0.1 mm 3 mps 749 mmHg 83%
    10:00 +3°C° 0.1 mm 3 mps 749 mmHg 78%
    11:00 +4°C° 0.1 mm 4 mps 749 mmHg 73%
    12:00 +4°C° 0.1 mm 4 mps 749 mmHg 74%
    13:00 +5°C° 0.1 mm 4 mps 748 mmHg 74%
    14:00 +6°C° 0.1 mm 4 mps 748 mmHg 74%
    15:00 +6°C° 0.1 mm 4 mps 747 mmHg 78%
    16:00 +6°C° 0.1 mm 4 mps 747 mmHg 83%
    17:00 +6°C° 0.1 mm 4 mps 747 mmHg 88%
    18:00 +6°C° 0.3 mm 4 mps 747 mmHg 89%
    19:00 +6°C° 0.3 mm 4 mps 746 mmHg 91%
    20:00 +7°C° 0.3 mm 3 mps 746 mmHg 93%
    21:00 +8°C° 0.5 mm 3 mps 746 mmHg 94%
    22:00 +8°C° 0.5 mm 3 mps 746 mmHg 94%
    23:00 +8°C° 0.5 mm 3 mps 745 mmHg 95%

    21 November, Wednesday

    Time Temperature Precipitation Wind Pressure Humidity
    00:00 +9°C° 0.4 mm 3 mps 745 mmHg 95%
    01:00 +9°C° 0.4 mm 3 mps 744 mmHg 96%
    02:00 +9°C° 0.4 mm 3 mps 744 mmHg 96%
    03:00 +9°C° 0.4 mm 3 mps 743 mmHg 96%
    04:00 +10°C° 0.4 mm 3 mps 743 mmHg 96%
    05:00 +10°C° 0.4 mm 3 mps 742 mmHg 97%
    06:00 +10°C° 0.6 mm 3 mps 742 mmHg 96%
    07:00 +11°C° 0.6 mm 3 mps 741 mmHg 96%
    08:00 +11°C° 0.6 mm 3 mps 741 mmHg 96%
    09:00 +11°C° 1.2 mm 3 mps 740 mmHg 96%
    10:00 +12°C° 1.2 mm 3 mps 740 mmHg 96%
    11:00 +12°C° 1.2 mm 3 mps 740 mmHg 95%
    12:00 +12°C° 2 mm 3 mps 739 mmHg 95%
    13:00 +12°C° 2 mm 3 mps 739 mmHg 95%
    14:00 +12°C° 2 mm 3 mps 739 mmHg 95%
    15:00 +11°C° 0.6 mm 3 mps 739 mmHg 95%
    16:00 +11°C° 0.6 mm 3 mps 739 mmHg 95%
    17:00 +10°C° 0.6 mm 3 mps 739 mmHg 95%
    18:00 +8°C° 0.4 mm 4 mps 740 mmHg 93%
    19:00 +8°C° 0.4 mm 4 mps 740 mmHg 92%
    20:00 +7°C° 0.4 mm 5 mps 741 mmHg 90%
    21:00 +7°C° 0.2 mm 5 mps 741 mmHg 90%
    22:00 +7°C° 0.2 mm 5 mps 742 mmHg 91%
    23:00 +7°C° 0.2 mm 4 mps 742 mmHg 91%

    22 November, Thursday

    Time Temperature Precipitation Wind Pressure Humidity
    00:00 +6°C° 0.2 mm 5 mps 742 mmHg 91%
    01:00 +6°C° 0.2 mm 5 mps 743 mmHg 91%
    02:00 +6°C° 0.2 mm 5 mps 743 mmHg 91%
    03:00 +5°C° 0.2 mm 5 mps 744 mmHg 91%
    04:00 +5°C° 0.2 mm 5 mps 744 mmHg 90%
    05:00 +3°C° 0.2 mm 5 mps 745 mmHg 90%
    06:00 +4°C° 0.2 mm 4 mps 745 mmHg 89%
    07:00 +3°C° 0.2 mm 4 mps 746 mmHg 89%
    08:00 +3°C° 0.2 mm 4 mps 746 mmHg 89%
    09:00 +3°C° 0.1 mm 4 mps 747 mmHg 87%
    10:00 +3°C° 0.1 mm 3 mps 747 mmHg 86%
    11:00 +4°C° 0.1 mm 3 mps 748 mmHg 85%
    12:00 +4°C° 0 mm 3 mps 748 mmHg 83%
    13:00 +4°C° 0 mm 3 mps 748 mmHg 81%
    14:00 +5°C° 0 mm 3 mps 749 mmHg 80%
    15:00 +5°C° 0 mm 3 mps 749 mmHg 81%
    16:00 +5°C° 0 mm 2 mps 749 mmHg 82%
    17:00 +5°C° 0 mm 2 mps 750 mmHg 83%
    18:00 +5°C° 0 mm 2 mps 750 mmHg 84%
    19:00 +4°C° 0 mm 2 mps 750 mmHg 85%
    20:00 +4°C° 0 mm 2 mps 751 mmHg 87%
    21:00 +4°C° 0 mm 2 mps 751 mmHg 88%
    22:00 +3°C° 0 mm 2 mps 751 mmHg 89%
    23:00 +3°C° 0 mm 2 mps 751 mmHg 90%

    23 November, Friday

    Time Temperature Precipitation Wind Pressure Humidity
    00:00 +4°C° 0 mm 1 mps 751 mmHg 91%
    01:00 +4°C° 0 mm 1 mps 752 mmHg 91%
    02:00 +4°C° 0 mm 1 mps 752 mmHg 92%
    03:00 +3°C° 0 mm 1 mps 752 mmHg 92%
    04:00 +3°C° 0 mm 1 mps 752 mmHg 92%
    05:00 +3°C° 0 mm 1 mps 752 mmHg 92%
    06:00 +3°C° 0 mm 1 mps 752 mmHg 91%
    07:00 +3°C° 0 mm 1 mps 753 mmHg 91%
    08:00 +3°C° 0 mm 1 mps 753 mmHg 91%
    09:00 +4°C° 0 mm 1 mps 753 mmHg 85%
    10:00 +5°C° 0 mm 1 mps 753 mmHg 80%
    11:00 +7°C° 0 mm 1 mps 754 mmHg 74%
    12:00 +6°C° 0 mm 2 mps 754 mmHg 71%
    13:00 +7°C° 0 mm 2 mps 753 mmHg 68%
    14:00 +8°C° 0 mm 2 mps 753 mmHg 64%
    15:00 +7°C° 0 mm 2 mps 753 mmHg 68%
    16:00 +6°C° 0 mm 2 mps 753 mmHg 71%
    17:00 +5°C° 0 mm 2 mps 753 mmHg 74%
    18:00 +6°C° 0 mm 1 mps 753 mmHg 75%
    19:00 +5°C° 0 mm 1 mps 754 mmHg 76%
    20:00 +5°C° 0 mm 1 mps 754 mmHg 76%
    21:00 +4°C° 0 mm 1 mps 754 mmHg 77%
    22:00 +4°C° 0 mm 1 mps 754 mmHg 77%
    23:00 +4°C° 0 mm 1 mps 754 mmHg 77%
    Show more